Waarnemingen

Advertentie
Mijn weer
Cap Ferret, Frankrijk (7500): temperatuur & dauwpunt: 16.06.2018 09:00:00 - 22.06.2018 09:00:00 (CEST)Cap Ferret, Frankrijk (7500): windsnelheid & windstoten: 16.06.2018 09:00:00 - 22.06.2018 09:00:00 (CEST)Cap Ferret, Frankrijk (7500): windrichting: 16.06.2018 09:00:00 - 22.06.2018 09:00:00 (CEST)Cap Ferret, Frankrijk (7500): luchtdruk: 16.06.2018 09:00:00 - 22.06.2018 09:00:00 (CEST)Cap Ferret, Frankrijk (7500): zicht: 16.06.2018 09:00:00 - 22.06.2018 09:00:00 (CEST)Cap Ferret, Frankrijk (7500): neerslag: 16.06.2018 09:00:00 - 22.06.2018 09:00:00 (CEST)
Datum & Tijd tt [°C] td [°C] ff [km/u] ff [kn] fx [km/u] fx [kn] dd ppp [hPa] vv [km] rr [mm]
22.06.2018 09:00:00 18,2 10,6 26 14 47 26 NO 1022,5 - 0,0
22.06.2018 08:00:00 17,4 10,5 32 17 48 26 NO 1022,1 20 0,0
22.06.2018 07:00:00 16,9 10,7 29 16 50 27 NO 1022,0 - 0,0
22.06.2018 06:00:00 17,7 11,5 30 16 47 25 NO 1021,8 - 0,0
22.06.2018 05:00:00 18,7 12,2 29 16 45 24 NO 1021,6 10 0,0
22.06.2018 04:00:00 19,6 13,5 27 15 45 24 NO 1021,1 - 0,0
22.06.2018 03:00:00 20,1 15,9 19 11 31 17 NO 1021,1 - 0,0
22.06.2018 02:00:00 20,6 16,8 18 10 31 17 NO 1021,2 10 0,0
22.06.2018 01:00:00 20,2 18,1 14 7 22 12 NO 1021,1 - 0,0
22.06.2018 00:00:00 19,9 17,9 6 3 11 6 ZO 1021,1 - 0,0
21.06.2018 23:00:00 20,3 18,1 4 2 13 7 OZO 1020,8 - 0,0
21.06.2018 22:00:00 21,0 18,9 11 6 20 11 ZW 1020,4 - 0,0
21.06.2018 21:00:00 21,5 19,1 14 7 21 11 ZZW 1020,2 - 0,0
21.06.2018 20:00:00 22,3 19,3 12 6 17 9 ZW 1020,0 7 0,0
21.06.2018 19:00:00 23,6 19,5 9 5 21 12 ZW 1020,1 - 0,0
21.06.2018 18:00:00 24,3 19,8 13 7 22 12 ZW 1020,2 - 0,0
21.06.2018 17:00:00 23,8 19,3 9 5 25 14 ZW 1020,4 7 0,0
21.06.2018 16:00:00 23,9 19,4 16 8 23 13 Z 1020,3 - 0,0
21.06.2018 15:00:00 23,6 19,1 15 8 28 15 Z 1020,4 - 0,0
21.06.2018 14:00:00 22,5 19,1 15 8 27 15 ZZW 1020,6 4,0 0,0
21.06.2018 13:00:00 21,9 18,9 16 9 27 15 ZZW 1020,3 - 0,0
21.06.2018 12:00:00 22,1 19,1 16 9 26 14 Z 1020,0 - 0,0
21.06.2018 11:00:00 21,6 19,2 14 8 25 14 Z 1019,6 3,0 0,0
21.06.2018 10:00:00 21,2 19,3 14 7 24 13 Z 1019,4 - 0,0
21.06.2018 09:00:00 21,0 19,6 15 8 28 15 ZW 1019,3 - 0,0
21.06.2018 08:00:00 20,7 19,5 20 11 28 15 ZW 1019,1 - 0,0
21.06.2018 07:00:00 20,7 19,7 18 10 27 14 ZW 1018,9 - 0,0
21.06.2018 06:00:00 20,6 19,4 17 9 26 14 ZW 1018,2 - 0,0
21.06.2018 05:00:00 20,4 19,2 17 9 24 13 ZZW 1018,0 - 0,0
21.06.2018 04:00:00 20,1 18,4 11 6 16 9 ZZW 1018,1 - 0,0
21.06.2018 03:00:00 20,3 18,6 7 4 11 6 W 1018,2 - 0,0
21.06.2018 02:00:00 20,6 18,5 8 4 16 8 WNW 1018,4 8 0,0
21.06.2018 01:00:00 21,1 19,0 11 6 15 8 W 1018,5 - 0,0
21.06.2018 00:00:00 21,7 19,1 9 5 19 10 WNW 1018,6 - 0,0
20.06.2018 23:00:00 22,4 19,6 11 6 19 10 N 1018,2 15 0,0
20.06.2018 22:00:00 22,5 19,5 9 5 19 11 N 1017,5 - 0,0
20.06.2018 21:00:00 23,4 19,3 13 7 26 14 NNW 1017,2 - 0,0
20.06.2018 20:00:00 25,0 19,4 16 8 28 15 N 1017,0 9 0,0
20.06.2018 19:00:00 25,9 19,8 17 9 31 17 NNW 1017,2 - 0,0
20.06.2018 18:00:00 27,1 19,7 17 9 35 19 NNW 1017,4 - 0,0
20.06.2018 17:00:00 26,1 19,5 19 10 34 18 NNW 1017,8 9 0,0
20.06.2018 16:00:00 26,1 19,5 19 10 32 17 NW 1018,0 - 0,0
20.06.2018 15:00:00 26,9 20,0 18 10 27 15 NW 1018,2 - 0,0
20.06.2018 14:00:00 26,6 19,7 14 8 23 12 NW 1018,5 8 0,0
20.06.2018 13:00:00 26,4 19,0 10 5 16 9 WNW 1018,8 - 0,0
20.06.2018 12:00:00 25,5 19,2 9 5 14 8 W 1018,8 - 0,0
20.06.2018 11:00:00 24,7 18,9 6 4 - - W 1018,7 15 0,0
20.06.2018 10:00:00 24,5 18,4 5 3 14 7 ZZW 1018,8 - 0,0
20.06.2018 09:00:00 22,9 18,2 6 3 18 10 O 1018,7 - 0,0
20.06.2018 08:00:00 20,6 17,8 16 9 21 11 NO 1018,5 15 0,0
20.06.2018 07:00:00 19,3 17,1 17 9 23 12 NO 1018,5 - 0,0
20.06.2018 06:00:00 19,3 17,3 18 10 21 11 NO 1018,4 - 0,0
20.06.2018 05:00:00 19,5 17,8 16 9 21 11 NO 1018,6 - 0,0
20.06.2018 04:00:00 19,1 17,8 14 8 18 10 NO 1018,8 - 0,0
20.06.2018 03:00:00 17,3 15,3 10 5 13 7 NO 1019,1 - 0,0
20.06.2018 02:00:00 17,9 15,9 4 2 5 3 N 1019,7 10 0,0
20.06.2018 01:00:00 18,5 16,3 5 3 9 5 N 1020,1 - 0,0
20.06.2018 00:00:00 19,2 16,8 9 5 10 5 N 1020,5 - 0,0
19.06.2018 23:00:00 19,9 16,9 8 4 16 9 N 1020,7 15 0,0
19.06.2018 22:00:00 20,4 17,4 13 7 36 20 N 1020,4 - 0,0
19.06.2018 21:00:00 21,2 17,6 21 12 39 21 NNW 1020,6 - 0,0
19.06.2018 20:00:00 21,9 17,9 22 12 37 20 NNW 1021,1 10 0,0
19.06.2018 19:00:00 22,7 17,6 23 13 40 21 NW 1021,5 - 0,0
19.06.2018 18:00:00 23,6 17,6 22 12 40 22 NNW 1022,1 - 0,0
19.06.2018 17:00:00 23,9 17,2 23 12 40 22 NNW 1022,8 13 0,0
19.06.2018 16:00:00 23,9 16,7 24 13 37 20 NNW 1023,1 - 0,0
19.06.2018 15:00:00 24,1 16,6 22 12 31 17 NW 1023,5 - 0,0
19.06.2018 14:00:00 23,4 16,0 20 11 32 18 NW 1024,0 20 0,0
19.06.2018 13:00:00 24,0 15,8 16 9 23 12 NW 1024,5 - 0,0
19.06.2018 12:00:00 23,8 15,3 5 3 16 9 NNO 1024,9 - 0,0
19.06.2018 11:00:00 22,1 14,0 9 5 16 9 NO 1025,3 15 0,2
19.06.2018 10:00:00 20,7 15,3 10 5 19 10 NO 1025,8 - 0,0
19.06.2018 09:00:00 19,7 15,3 12 6 22 12 NO 1025,8 - 0,0
19.06.2018 08:00:00 18,2 14,9 10 5 18 10 NNO 1026,0 10 0,0
19.06.2018 07:00:00 16,7 14,0 12 6 19 10 NO 1026,1 - 0,0
19.06.2018 06:00:00 17,1 14,0 9 5 14 8 ONO 1026,0 - 0,0
19.06.2018 05:00:00 17,2 13,9 5 3 23 12 ONO 1025,9 10 0,0
19.06.2018 04:00:00 17,5 13,6 14 8 21 11 NO 1026,0 - 0,0
19.06.2018 03:00:00 17,2 13,7 11 6 21 11 NNO 1026,1 - 0,0
19.06.2018 02:00:00 17,3 14,2 10 5 18 10 NNO 1026,4 15 0,0
19.06.2018 01:00:00 17,3 14,2 10 6 17 9 NNO 1026,6 - 0,0
19.06.2018 00:00:00 17,4 14,1 10 5 17 9 NNO 1026,7 - 0,0
18.06.2018 23:00:00 17,9 14,0 10 6 15 8 N 1026,6 - 0,0
18.06.2018 22:00:00 18,7 14,4 8 5 22 12 N 1026,2 - 0,0
18.06.2018 21:00:00 19,6 14,8 14 7 21 11 NNW 1026,0 - 0,0
18.06.2018 20:00:00 20,9 15,0 11 6 22 12 WNW 1025,8 15 0,0
18.06.2018 19:00:00 22,7 15,0 12 6 20 11 WNW 1025,9 - 0,0
18.06.2018 18:00:00 23,0 15,1 13 7 22 12 WNW 1026,2 - 0,0
18.06.2018 17:00:00 21,8 15,2 11 6 26 14 NNW 1026,4 10 0,0
18.06.2018 16:00:00 20,6 16,0 13 7 27 14 NNW 1026,6 - 0,0
18.06.2018 15:00:00 20,9 16,5 16 8 27 15 NNW 1026,4 - 0,0
18.06.2018 14:00:00 22,6 16,8 10 5 19 10 W 1026,3 10 0,0
18.06.2018 13:00:00 22,5 16,8 9 5 17 9 WZW 1026,4 - 0,0
18.06.2018 12:00:00 21,0 17,0 6 3 19 10 WNW 1026,3 - 0,0
18.06.2018 11:00:00 18,9 17,0 10 6 29 16 NNW 1026,3 - 0,0
18.06.2018 10:00:00 19,4 18,2 16 8 32 18 WZW 1026,2 - 0,0
18.06.2018 09:00:00 18,3 16,3 21 11 35 19 WZW 1026,0 - 0,0
18.06.2018 08:00:00 18,6 15,3 20 11 29 16 WZW 1025,6 10 0,0
18.06.2018 07:00:00 18,3 14,8 19 10 29 16 WZW 1025,6 - 0,0
18.06.2018 06:00:00 18,1 14,4 18 10 26 14 WZW 1025,4 - 0,0
18.06.2018 05:00:00 17,8 13,9 14 8 26 14 WZW 1025,4 15 0,0
18.06.2018 04:00:00 17,5 13,4 9 5 33 18 W 1025,5 - 0,0
18.06.2018 03:00:00 17,8 12,7 21 12 34 18 W 1025,7 - 0,0
18.06.2018 02:00:00 17,9 12,8 18 10 23 12 W 1026,0 15 0,0
18.06.2018 01:00:00 17,4 12,5 19 11 25 14 W 1026,3 - 0,0
18.06.2018 00:00:00 17,4 12,3 17 9 22 12 W 1026,3 - 0,0
17.06.2018 23:00:00 17,3 11,8 12 6 19 10 W 1026,2 15 0,0
17.06.2018 22:00:00 18,3 11,4 14 7 23 13 WNW 1025,6 - 0,0
17.06.2018 21:00:00 19,1 11,6 16 9 27 14 WNW 1025,6 - 0,0
17.06.2018 20:00:00 19,9 11,6 15 8 25 13 WNW 1025,6 15 0,0
17.06.2018 19:00:00 21,3 11,0 14 7 26 14 WNW 1025,1 - 0,0
17.06.2018 18:00:00 22,0 11,4 19 11 30 16 WNW 1025,3 - 0,0
17.06.2018 17:00:00 22,7 12,3 19 10 29 16 WNW 1025,2 15 0,0
17.06.2018 16:00:00 23,1 13,0 18 10 30 16 WNW 1025,2 - 0,0
17.06.2018 15:00:00 22,8 13,3 21 12 31 17 W 1025,0 - 0,0
17.06.2018 14:00:00 22,9 13,7 20 11 32 17 WNW 1024,8 15 0,0
17.06.2018 13:00:00 22,3 14,4 19 10 30 16 WNW 1024,6 - 0,0
17.06.2018 12:00:00 20,5 14,2 13 7 30 16 WNW 1024,4 15 0,0
17.06.2018 11:00:00 20,1 14,5 18 10 27 15 WZW 1024,4 - 0,0
17.06.2018 10:00:00 19,6 14,8 11 6 21 11 Z 1024,2 - 0,0
17.06.2018 09:00:00 18,8 14,3 11 6 19 10 Z 1023,8 - 0,0
17.06.2018 08:00:00 17,8 14,1 7 4 14 7 Z 1023,3 15 0,0
17.06.2018 07:00:00 16,8 13,3 3 2 15 8 W 1023,2 - 0,0
17.06.2018 06:00:00 16,6 12,9 10 5 33 18 WZW 1022,9 - 0,0
17.06.2018 05:00:00 17,5 12,8 23 12 36 20 W 1022,4 15 0,0
17.06.2018 04:00:00 17,3 11,8 16 9 24 13 W 1022,6 - 0,0
17.06.2018 03:00:00 16,6 11,5 15 8 22 12 W 1022,5 - 0,0
17.06.2018 02:00:00 17,0 11,9 16 9 21 11 W 1022,5 15 0,0
17.06.2018 01:00:00 16,8 11,5 14 7 20 11 WNW 1022,7 - 0,0
17.06.2018 00:00:00 17,3 11,6 13 7 19 10 WNW 1022,8 - 0,2
16.06.2018 23:00:00 17,1 10,5 11 6 23 12 WNW 1022,5 15 0,0
16.06.2018 22:00:00 17,9 10,8 14 8 24 13 NW 1022,1 - 0,0
16.06.2018 21:00:00 19,0 11,1 13 7 24 13 NW 1021,7 - 0,0
16.06.2018 20:00:00 19,5 10,8 14 8 24 13 WNW 1021,5 15 0,0
16.06.2018 19:00:00 21,7 11,1 16 9 25 14 WNW 1021,2 - 0,0
16.06.2018 18:00:00 22,4 11,2 15 8 25 13 W 1021,0 - 0,0
16.06.2018 17:00:00 23,0 11,1 16 9 25 14 W 1021,0 15 0,0
16.06.2018 16:00:00 22,3 11,4 19 11 27 15 WNW 1020,9 - 0,0
16.06.2018 15:00:00 22,5 11,6 17 9 25 13 W 1020,9 - 0,0
16.06.2018 14:00:00 20,6 11,5 16 9 26 14 W 1020,9 15 0,0
16.06.2018 13:00:00 21,2 11,8 13 7 23 12 W 1020,9 - 0,0
16.06.2018 12:00:00 21,2 10,7 13 7 20 11 WNW 1020,8 15 0,0
16.06.2018 11:00:00 20,2 9,7 11 6 25 13 WNW 1020,5 - 0,0
16.06.2018 10:00:00 19,2 11,0 15 8 26 14 W 1020,1 - 0,0
16.06.2018 09:00:00 17,9 10,5 22 12 35 19 W 1019,6 - 0,0

tt = temperatuur
td = dauwpunt
ff = windsnelheid
fx = windstoten
dd = windrichting
ppp = luchtdruk
vv = zicht
rr = neerslag

Weerstations in de omgeving